#timestamp,LO_Frequency,Hit 
1501653615.4,286047017.8,N
1501653635.3,286047018.7,N
1501653655.1,286047015.8,N
1501653675.9,286047016.1,N
1501653695.7,286047017.2,N
1501653715.5,286047014.5,N
1501653735.3,286047018.5,N
1501653755.2,286047016.3,N
1501653775.0,286047012.8,N
1501653775.9,286047012.8,N
1501653795.7,286047013.9,N
1501653815.6,286047015.2,N
1501653835.4,286047010.9,N
1501653855.2,286047010.9,N
1501653875.1,286047013.7,N
1501653876.0,286047013.7,N
1501653895.8,286047015.5,N
1501653915.6,286047014.4,N
1501653935.5,286047016.8,N
1501653955.3,286047016.4,N
1501653975.1,286047015.7,N
1501653995.9,286047019.7,N
1501654015.7,286047017.4,N
1501654035.5,286047018.3,N
1501654055.4,286047016.3,N
1501654075.2,286047016.1,N
1501654095.2,286047022.3,N
1501654115.0,286047020.7,N
1501654115.9,286047020.7,N
1501654135.7,286047021.1,N
1501654155.5,286047022.9,N
1501654175.3,286047024.1,N
1501654195.2,286047025.2,N
1501654215.0,286047024.5,N
1501654215.9,286047024.5,N
1501654235.7,286047022.7,N
1501654255.6,286047024.8,N
1501654275.4,286047022.4,N
1501654295.2,286047023.7,N
1501654315.1,286047025.3,N
1501654316.0,286047025.3,N
1501654335.8,286047028.4,N
1501654355.6,286047024.5,N
1501654375.5,286047022.8,N
1501654395.3,286047022.5,N
1501654415.1,286047022.7,N
1501654435.9,286047024.9,N
1501654455.7,286047022.1,N
1501654475.5,286047022.4,N
1501654495.3,286047023.5,N
1501654515.2,286047024.8,N
1501654535.0,286047024.1,N
1501654535.9,286047024.1,N
1501654555.7,286047030.0,N
1501654575.6,286047030.3,N
1501654595.4,286047034.6,N
1501654615.2,286047036.2,N
1501654635.1,286047037.4,N
1501654636.0,286047037.4,N
1501654655.8,286047037.3,N
1501654675.6,286047035.3,N
1501654695.5,286047036.3,N
1501654715.3,286047036.5,N
1501654735.1,286047038.1,N
1501654755.9,286047042.8,N
1501654775.7,286047042.0,N
1501654795.5,286047041.5,N
1501654815.4,286047040.0,N
1501654835.2,286047040.4,N
1501654855.0,286047038.3,N
1501654855.9,286047038.3,N
1501654875.8,286047038.3,N
1501654895.6,286047039.1,N
1501654915.4,286047040.9,N
1501654935.2,286047039.8,N
1501654955.1,286047038.3,N
1501654956.0,286047038.3,N
1501654975.8,286047039.1,N
1501654995.6,286047040.5,N
1501655015.5,286047042.3,N
1501655035.3,286047041.6,N
1501655055.1,286047042.0,N
1501655075.9,286047042.7,N
1501655095.7,286047042.8,N
1501655115.5,286047044.1,N
1501655135.4,286047045.4,N
1501655155.2,286047045.4,N
1501655175.0,286047045.4,N
1501655175.9,286047045.4,N
1501655195.8,286047043.6,N
1501655215.6,286047041.7,N
1501655235.4,286047041.7,N
1501655255.3,286047040.4,N
1501655275.1,286047040.2,N
1501655276.0,286047040.2,N
1501655295.8,286047040.1,N
1501655315.7,286047042.2,N
1501655335.5,286047042.8,N
1501655355.3,286047042.7,N
1501655375.1,286047039.8,N
1501655395.9,286047038.6,N
1501655415.7,286047038.3,N
1501655435.5,286047039.1,N
1501655455.4,286047039.4,N
1501655475.2,286047036.5,N
1501655495.0,286047038.0,N
1501655495.9,286047038.0,N
1501655515.8,286047039.1,N
1501655535.3,286047039.3,N
1501655555.1,286047037.1,N
1501655575.9,286047038.5,N
1501655595.7,286047038.4,N
1501655615.5,286047035.2,N
1501655635.4,286047035.1,N
1501655655.2,286047037.4,N
1501655675.0,286047038.0,N
1501655675.9,286047038.0,N
1501655695.8,286047034.5,N
1501655715.6,286047032.8,N
1501655735.4,286047028.5,N
1501655755.2,286047029.3,N
1501655775.1,286047025.4,N
1501655776.0,286047025.4,N
1501655795.8,286047029.6,N
1501655815.7,286047027.6,N
1501655835.5,286047027.4,N
1501655855.3,286047031.3,N
1501655875.1,286047028.5,N
1501655895.9,286047034.5,N
1501655915.7,286047037.3,N
1501655935.5,286047040.3,N
1501655955.4,286047037.8,N
1501655975.3,286047037.5,N
1501655995.1,286047034.5,N
1501656015.8,286047033.0,N
1501656035.7,286047028.6,N
1501656055.5,286047029.5,N
1501656075.3,286047029.7,N
1501656095.2,286047028.7,N
1501656115.9,286047032.7,N
1501656135.7,286047033.8,N
1501656155.6,286047030.2,N
1501656175.4,286047029.3,N
1501656195.2,286047028.8,N
1501656215.1,286047031.5,N
1501656216.0,286047031.5,N
1501656235.8,286047026.9,N
1501656255.6,286047029.9,N
1501656275.5,286047029.6,N
1501656295.3,286047031.5,N
1501656315.1,286047027.2,N
1501656335.8,286047029.0,N
1501656355.7,286047027.7,N
1501656375.5,286047022.3,N
1501656395.3,286047023.1,N
1501656415.2,286047022.6,N
1501656435.0,286047023.0,N
1501656435.9,286047023.0,N
1501656455.7,286047022.2,N
1501656475.6,286047019.5,N
1501656495.4,286047019.3,N
1501656515.2,286047021.6,N
1501656535.1,286047021.5,N
1501656536.0,286047021.5,N
1501656555.8,286047021.0,N
1501656575.6,286047021.2,N
1501656595.5,286047019.7,N
1501656615.3,286047021.2,N
1501656635.1,286047017.5,N
1501656655.9,286047018.1,N
1501656675.7,286047017.0,N
1501656695.5,286047014.6,N
1501656715.4,286047016.2,N
1501656735.2,286047017.8,N
1501656755.0,286047017.0,N
1501656755.9,286047017.0,N
1501656775.8,286047016.3,N
1501656795.6,286047018.5,N
1501656815.4,286047016.8,N
1501656835.3,286047014.1,N
1501656855.6,286047016.8,N
1501656875.5,286047014.8,N
1501656895.3,286047014.5,N
1501656915.1,286047018.5,N
1501656935.9,286047019.7,N
1501656955.7,286047019.7,N
1501656975.5,286047021.2,N
1501656995.3,286047023.0,N
1501657015.2,286047022.5,N
1501657035.0,286047022.9,N
1501657035.9,286047022.9,N
1501657055.7,286047023.4,N
1501657075.6,286047022.9,N
1501657095.4,286047022.9,N
1501657115.2,286047021.3,N
1501657135.1,286047022.7,N
1501657136.0,286047022.7,N
1501657155.8,286047022.4,N
1501657175.6,286047023.2,N
1501657195.5,286047017.3,N
